(504028) = 2005 SQ266 = 2011 UO33

Discovered at Kitt Peak on 2005-08-31 by Spacewatch.

Orbit

Orbit type: Main Belt

Note: WebGL enabled browser required.

epoch2023-09-13.0
epoch JD2460200.5
perihelion date2022-09-25.56483
perihelion JD2459848.06483
argument of perihelion (°)46.57853
ascending node (°)287.07342
inclination (°)4.35563
eccentricity0.2043522
perihelion distance (AU)2.5487823
Tisserand w.r.t. Jupiter3.2
ΔV w.r.t. Earth (km/sec)10.1
semimajor axis (AU)3.2034053
mean anomaly (°)60.58502
mean daily motion (°/day)0.17190400
aphelion distance (AU)3.858
period (years)5.73
P-vector [x]0.89410930
P-vector [y]-0.42970655
P-vector [z]-0.12617782
Q-vector [x]0.44192512
Q-vector [y]0.80086918
Q-vector [z]0.40411725
absolute magnitude16.55
phase slope0.15
uncertainty0
referenceMPEC 2024-A65
observations used236
oppositions11
arc length (days)6701
first opposition used2005
last opposition used2024
residual rms (arc-secs)0.65
perturbers coarse indicatorM-v
perturbers precise indicator003Ek
first observation date used2005-08-31.0
last observation date used2024-01-05.0
computer nameMPCLINUX
JD of orbit computation2458054.138482
perihelion JD uncertainty (days)2.5505E-04
argument of perihelion uncertainty (°)1.6788E-04
ascending node uncertainty (°)1.6351E-04
inclination uncertainty (°)5.4042E-06
eccentricity uncertainty 1.5387E-07
perihelion distance uncertainty (AU)4.6044E-07
Minimum Orbit Intersection Distances (in AU)
for orbit epoch: 2460200.5, reference: E2023-Y18
Mercury2.15098
Venus1.82729
Earth1.54042
Mars1.17792
Jupiter1.52906
Saturn5.38789
Uranus14.6094
Neptune26.5544

Observations

245 total observations over interval: 2005 08 31.29570 – 2024 01 05.267501
These data are available for download (format description).

Date (UT) J2000 RA J2000 Dec Magn Location Ref
2005 08 31.29570 23 33 25.97 +03 45 27.9 20.3 V 691 – Steward Observatory, Kitt Peak-Spacewatch MPS 465516
2005 08 31.31304 23 33 25.24 +03 45 25.1 20.6 V 691 – Steward Observatory, Kitt Peak-Spacewatch MPS 465516
2005 08 31.33712 23 33 24.21 +03 45 21.6 20.2 V 691 – Steward Observatory, Kitt Peak-Spacewatch MPS 465516
2005 09 29.19464 23 12 55.88 +01 55 44.9 19.8 R 699 – Lowell Observatory-LONEOS MPS 156010
2005 09 29.21744 23 12 54.97 +01 55 40.5   699 – Lowell Observatory-LONEOS MPS 156010
2005 09 29.24023 23 12 54.12 +01 55 34.7   699 – Lowell Observatory-LONEOS MPS 156010
2005 09 29.26306 23 12 53.15 +01 55 29.2   699 – Lowell Observatory-LONEOS MPS 156010
2005 10 01.10062 23 11 47.11 +01 47 44.3 20.2 V 691 – Steward Observatory, Kitt Peak-Spacewatch MPS 156010
2005 10 01.11613 23 11 46.53 +01 47 40.5 20.3 V 691 – Steward Observatory, Kitt Peak-Spacewatch MPS 156010
2005 10 01.13157 23 11 45.94 +01 47 36.4 20.4 V 691 – Steward Observatory, Kitt Peak-Spacewatch MPS 156010
2008 02 09.32721 09 36 56.84 +10 42 30.4 21.6 V G96 – Mt. Lemmon Survey MPS 465516
2008 02 09.33488 09 36 56.48 +10 42 32.0 21.8 V G96 – Mt. Lemmon Survey MPS 465516
2008 02 09.34257 09 36 56.08 +10 42 33.6 21.8 V G96 – Mt. Lemmon Survey MPS 465516
2008 02 09.35035 09 36 55.76 +10 42 35.1 22.5 V G96 – Mt. Lemmon Survey MPS 465516
2011 10 01.23491 01 21 06.47 +15 50 27.6   691 – Steward Observatory, Kitt Peak-Spacewatch MPS 465516
2011 10 01.25269 01 21 05.60 +15 50 24.9   691 – Steward Observatory, Kitt Peak-Spacewatch MPS 465516
2011 10 01.27047 01 21 04.82 +15 50 21.2   691 – Steward Observatory, Kitt Peak-Spacewatch MPS 465516
2011 10 19.14372 01 07 27.51 +14 30 52.9 19.7 R H15 – ISON-NM Observatory, Mayhill MPS 396542
2011 10 19.15782 01 07 26.80 +14 30 47.2 19.7 R H15 – ISON-NM Observatory, Mayhill MPS 396542
2011 10 19.17343 01 07 26.13 +14 30 43.0 19.7 R H15 – ISON-NM Observatory, Mayhill MPS 396542
2011 10 19.18760 01 07 25.44 +14 30 38.6 19.8 R H15 – ISON-NM Observatory, Mayhill MPS 396542
2011 10 21.23980 01 05 53.95 +14 20 03.1 20.1 V G96 – Mt. Lemmon Survey MPS 396542
2011 10 21.24670 01 05 53.62 +14 20 00.9 20.0 V G96 – Mt. Lemmon Survey MPS 396542
2011 10 21.25366 01 05 53.30 +14 19 58.8 19.6 V G96 – Mt. Lemmon Survey MPS 396542
2011 10 21.26060 01 05 52.98 +14 19 56.7 19.9 V G96 – Mt. Lemmon Survey MPS 396542
2011 10 21.30940 01 05 51.006 +14 19 42.37 20.5 w F51 – Pan-STARRS 1, Haleakala MPS 396542
2011 10 21.32324 01 05 50.365 +14 19 38.05 20.5 w F51 – Pan-STARRS 1, Haleakala MPS 396542
2011 10 21.33706 01 05 49.740 +14 19 33.86 20.5 w F51 – Pan-STARRS 1, Haleakala MPS 396542
2011 10 21.35091 01 05 49.110 +14 19 29.44 20.5 w F51 – Pan-STARRS 1, Haleakala MPS 396542
2014 02 26.46461 10 15 43.993 +06 10 15.85 21.8 w F51 – Pan-STARRS 1, Haleakala MPS 502331
2014 02 26.47620 10 15 43.476 +06 10 18.49 21.9 w F51 – Pan-STARRS 1, Haleakala MPS 502331
2014 02 26.48774 10 15 42.956 +06 10 20.85 21.6 w F51 – Pan-STARRS 1, Haleakala MPS 502331
2014 02 26.49928 10 15 42.447 +06 10 23.45 21.7 w F51 – Pan-STARRS 1, Haleakala MPS 502331
2015 04 18.25973 13 27 41.91 -15 40 30.2 21.6 V W84 – Cerro Tololo-DECam MPS 785119
2015 04 18.26296 13 27 41.76 -15 40 29.6   W84 – Cerro Tololo-DECam MPS 785119
2015 04 18.26622 13 27 41.61 -15 40 28.5   W84 – Cerro Tololo-DECam MPS 785119
2015 04 18.26946 13 27 41.46 -15 40 27.6   W84 – Cerro Tololo-DECam MPS 785119
2015 04 18.27269 13 27 41.30 -15 40 26.7   W84 – Cerro Tololo-DECam MPS 785119
2015 04 19.25117 13 26 57.23 -15 36 04.5 21.3 V W84 – Cerro Tololo-DECam MPS 785119
2015 04 19.25441 13 26 57.08 -15 36 03.5   W84 – Cerro Tololo-DECam MPS 785119
2015 04 19.25766 13 26 56.94 -15 36 02.6   W84 – Cerro Tololo-DECam MPS 785119
2015 04 19.26413 13 26 56.64 -15 36 00.9   W84 – Cerro Tololo-DECam MPS 785119
2015 04 21.25200 13 25 27.46 -15 27 00.1 21.6 V W84 – Cerro Tololo-DECam MPS 785119
2015 04 21.25524 13 25 27.31 -15 26 59.2   W84 – Cerro Tololo-DECam MPS 785119
2015 04 21.25845 13 25 27.17 -15 26 58.4   W84 – Cerro Tololo-DECam MPS 785119
2015 04 21.26170 13 25 27.01 -15 26 57.4   W84 – Cerro Tololo-DECam MPS 785119
2015 04 21.26496 13 25 26.87 -15 26 56.6   W84 – Cerro Tololo-DECam MPS 785119
2017 09 01.54534 03 24 11.592 +23 42 37.33 21.1 i F51 – Pan-STARRS 1, Haleakala MPS 813363
2017 09 01.56738 03 24 12.202 +23 42 41.25 21.1 i F51 – Pan-STARRS 1, Haleakala MPS 813363
2017 09 01.57839 03 24 12.514 +23 42 43.72 21.2 i F51 – Pan-STARRS 1, Haleakala MPS 813363
2017 10 21.33580 03 18 07.20 +24 08 53.2 21.6 G G96 – Mt. Lemmon Survey MPS 828164
2017 10 21.34101 03 18 07.01 +24 08 52.7 21.4 G G96 – Mt. Lemmon Survey MPS 828164
2017 10 21.34619 03 18 06.74 +24 08 51.8 21.4 G G96 – Mt. Lemmon Survey MPS 828164
2017 10 21.35135 03 18 06.57 +24 08 51.1 20.7 G G96 – Mt. Lemmon Survey MPS 828164
2017 10 21.37964 03 18 05.27 +24 08 47.3 21.1 G G96 – Mt. Lemmon Survey MPS 828164
2017 10 21.38831 03 18 04.89 +24 08 46.0 20.8 G G96 – Mt. Lemmon Survey MPS 828164
2017 10 21.39702 03 18 04.53 +24 08 44.2 20.2 G G96 – Mt. Lemmon Survey MPS 828164
2017 10 21.40674 03 18 04.16 +24 08 42.9 19.9 G G96 – Mt. Lemmon Survey MPS 828164
2017 10 22.42645 03 17 20.29 +24 06 15.5 20.4 G G96 – Mt. Lemmon Survey MPS 828164
2017 10 22.42740 03 17 20.26 +24 06 15.3 20.4 G G96 – Mt. Lemmon Survey MPS 828164
2017 10 22.43157 03 17 20.05 +24 06 14.9 20.5 G G96 – Mt. Lemmon Survey MPS 828164
2017 10 22.43734 03 17 19.82 +24 06 13.7 20.6 G G96 – Mt. Lemmon Survey MPS 828164
2017 10 22.43829 03 17 19.78 +24 06 13.6 20.5 G G96 – Mt. Lemmon Survey MPS 828164
2017 10 22.44232 03 17 19.60 +24 06 13.1 20.7 G G96 – Mt. Lemmon Survey MPS 828164
2017 10 22.44810 03 17 19.35 +24 06 11.7 20.4 G G96 – Mt. Lemmon Survey MPS 828164
2017 10 22.45826 03 17 18.85 +24 06 10.5 20.7 G G96 – Mt. Lemmon Survey MPS 828164
2017 10 24.29661 03 15 57.74 +24 01 24.5 22.7 G I52 – Steward Observatory, Mt. Lemmon Station MPS 828164
2017 10 24.30322 03 15 57.43 +24 01 22.0   I52 – Steward Observatory, Mt. Lemmon Station MPS 828164
2017 10 24.30982 03 15 57.11 +24 01 21.1   I52 – Steward Observatory, Mt. Lemmon Station MPS 828164
2017 10 24.31580 03 15 56.83 +24 01 19.2 21.3 G I52 – Steward Observatory, Mt. Lemmon Station MPS 828164
2017 10 25.39988 03 15 07.24 +23 58 21.5 20.4 G I52 – Steward Observatory, Mt. Lemmon Station MPS 828164
2017 10 25.40471 03 15 07.04 +23 58 19.9 20.9 G I52 – Steward Observatory, Mt. Lemmon Station MPS 828164
2017 10 25.41022 03 15 06.77 +23 58 19.6 20.9 G I52 – Steward Observatory, Mt. Lemmon Station MPS 828164
2017 10 25.41612 03 15 06.47 +23 58 19.1 21.3 G I52 – Steward Observatory, Mt. Lemmon Station MPS 828164
2017 10 26.04910 03 14 37.29 +23 56 29.3 20.6 R B74 – Santa Maria de Montmagastrell MPS 828164
2017 10 26.05499 03 14 37.01 +23 56 28.3 20.5 R B74 – Santa Maria de Montmagastrell MPS 828164
2017 10 26.06088 03 14 36.71 +23 56 27.1 20.6 R B74 – Santa Maria de Montmagastrell MPS 828164
2017 10 27.32913 03 13 37.15 +23 52 41.6 20.9 G G96 – Mt. Lemmon Survey MPS 828164
2017 10 27.33804 03 13 36.72 +23 52 39.9 20.9 G G96 – Mt. Lemmon Survey MPS 828164
2017 10 27.34352 03 13 36.42 +23 52 38.2 20.9 G G96 – Mt. Lemmon Survey MPS 828164
2017 10 27.34896 03 13 36.22 +23 52 37.2 20.2 G G96 – Mt. Lemmon Survey MPS 828164
2017 11 13.44369 02 59 12.346 +22 46 48.77 20.4 w F51 – Pan-STARRS 1, Haleakala MPS 839119
2017 11 13.45778 02 59 11.610 +22 46 44.96 20.3 w F51 – Pan-STARRS 1, Haleakala MPS 839119
2017 11 13.47185 02 59 10.874 +22 46 41.15 20.4 w F51 – Pan-STARRS 1, Haleakala MPS 839119
2017 11 13.48602 02 59 10.130 +22 46 37.30 20.4 w F51 – Pan-STARRS 1, Haleakala MPS 839119
2017 11 14.25365 02 58 31.50 +22 43 09.3 20.1 G G96 – Mt. Lemmon Survey MPS 839119
2017 11 14.25786 02 58 31.26 +22 43 08.3 20.1 G G96 – Mt. Lemmon Survey MPS 839119
2017 11 14.26208 02 58 31.05 +22 43 07.5 20.4 G G96 – Mt. Lemmon Survey MPS 839119
2017 11 14.26629 02 58 30.81 +22 43 06.3 20.2 G G96 – Mt. Lemmon Survey MPS 839119
2017 11 22.45315 02 51 55.620 +22 05 12.54 20.6 w F51 – Pan-STARRS 1, Haleakala MPS 842901
2017 11 22.46711 02 51 54.967 +22 05 08.63 20.6 w F51 – Pan-STARRS 1, Haleakala MPS 842901
